Flag for Germany Weather past 2 weeks in Salzgitter, Lower Saxony, Germany

Now
61 °F

Broken clouds.


Feels Like: 61 °F
Forecast: 51 / 62 °F
Wind: 12 mph from Southwest

Location: Braunschweig

Current Time: Sep 4, 2015 at 3:15:10 PM

Latest Report: Sep 4, 2015 at 2:20 PM


Visibility: N/A

Pressure: 29.92 "Hg

Humidity: 55%

Dew point: 45 °F

Location of SalzgitterLocation

Historic Weather in Salzgitter — Graph

°F

Salzgitter temperature yesterday

Maximum temperature yesterday: 66 °F (at 4:50 PM)
Minimum temperature yesterday: 50 °F (at 5:50 AM)
Average temperature yesterday: 58 °F

Past Weeks' High & Low Weather Summary

 TemperatureHumidityPressure
High91 °F (Aug 31, 4:50 PM)100% (Aug 20, 9:20 PM)30.30 "Hg (Aug 20, 9:20 PM)
Low50 °F (Aug 21, 6:50 AM)30% (Aug 21, 2:50 PM)29.65 "Hg (Aug 24, 5:20 PM)
Average67 °F71%29.96 "Hg
* Reported Aug 20 2:20 PM — Sep 4 2:20 PM, Salzgitter, Weather by CustomWeather, © 2015

Note: Actual official high and low records may vary slightly from our data, if they occured in-between our weather recording intervals... More about our weather records

Advertising

Salzgitter weather history for previous 24 hours

 ConditionsComfort  
Time TempWeatherWind HumidityBarometerVisibility
2:20 PM
Fri, Sep 4
61 °FBroken clouds.12 mph55%29.92 "HgN/A
1:50 PM63 °FPassing clouds.16 mph56%29.92 "HgN/A
1:20 PM63 °FScattered clouds.14 mph52%29.92 "HgN/A
12:50 PM63 °FPassing clouds.16 mph59%29.92 "HgN/A
12:20 PM59 °FScattered clouds.14 mph63%29.92 "HgN/A
11:50 AM59 °FScattered clouds.14 mph72%29.92 "HgN/A
11:20 AM59 °FScattered clouds.13 mph72%29.95 "HgN/A
10:50 AM61 °FPassing clouds.12 mph72%29.92 "HgN/A
10:20 AM59 °FSunny.10 mph77%29.95 "Hg10 mi
9:50 AM57 °FPassing clouds.6 mph88%29.92 "HgN/A
9:20 AM55 °FSunny.8 mph94%29.92 "Hg10 mi
8:50 AM55 °FSunny.7 mph94%29.92 "Hg10 mi
8:20 AM52 °FSunny.6 mph100%29.92 "Hg10 mi
7:50 AM50 °FClear.6 mph100%29.92 "Hg6 mi
7:20 AM50 °FPassing clouds.5 mph100%29.92 "HgN/A
6:50 AM50 °FPassing clouds.2 mph100%29.92 "Hg5 mi
9:50 PM
Thu, Sep 3
54 °FPassing clouds.5 mph100%29.92 "HgN/A
9:20 PM55 °FPassing clouds.5 mph100%29.92 "HgN/A
8:50 PM55 °FPassing clouds.5 mph100%29.92 "HgN/A
8:20 PM57 °FThundershowers. Broken clouds.5 mph88%29.92 "HgN/A
7:50 PM59 °FBroken clouds.2 mph100%29.92 "HgN/A
7:20 PM57 °FSunny.3 mph88%29.92 "Hg10 mi
6:50 PM61 °FSunny.3 mph77%29.92 "Hg10 mi
6:20 PM63 °FSunny.3 mph73%29.92 "Hg10 mi
5:20 PM63 °FScattered clouds.9 mph68%29.92 "HgN/A
4:50 PM66 °FSunny.2 mph60%29.92 "Hg10 mi
4:20 PM64 °FPassing clouds.3 mph68%29.92 "HgN/A
3:50 PM63 °FPartly sunny.3 mph73%29.92 "HgN/A
3:20 PM64 °FBroken clouds.3 mph60%29.92 "HgN/A
Weather by CustomWeather, © 2015

See weather overviewHow to use our weather pages